Theta_e
340 341 340 339 338 337 337 337 336 334 333 332 331 331 330 330 330 328 328 331 334 335 336 338 339 340 341 341 341 341 340 340 340 339 339 343 346 347 347 345 344 345 345 346 346 346 347 345 345 345 345 344 345 345 343 342 343 344 344 345 345 343 343 344 345 346 347 347 347 346 347 347 347 348 349 348 347 348 348 348 348 348 349 349 349
338 338 337 337 337 337 337 335 335 332 330 329 329 329 328 330 328 326 330 333 336 339 340 340 341 341 341 342 342 342 341 342 342 342 344 346 347 345 345 345 344 345 345 346 345 345 346 346 345 345 344 344 344 344 343 343 343 344 343 343 342 342 342 343 345 346 346 346 346 346 346 345 346 347 348 347 346 346 347 349 349 348 348 349 348
337 336 335 335 335 335 335 334 334 331 330 329 328 328 328 329 327 325 331 336 339 341 340 341 340 341 342 342 342 342 343 344 345 345 346 346 345 343 343 344 345 344 344 344 345 345 345 345 345 344 344 344 344 345 345 345 345 345 344 344 344 344 345 345 346 347 346 345 345 346 347 347 346 345 346 348 348 347 346 346 347 348 348 349 349
336 335 335 335 334 334 333 333 332 331 331 330 329 328 328 329 325 324 332 338 341 340 340 341 341 342 342 343 343 344 345 345 345 345 344 344 343 343 343 344 345 344 343 344 344 344 344 344 344 344 344 344 344 344 345 345 345 345 345 345 347 346 346 346 347 347 347 346 346 347 347 347 348 346 345 346 346 346 346 346 345 346 348 349 348
335 335 334 334 333 332 331 331 329 328 328 327 328 327 328 327 323 324 332 339 341 340 341 341 341 342 342 343 344 344 344 344 344 344 343 343 343 343 342 343 344 344 345 345 345 344 344 344 344 344 343 343 343 344 344 344 345 345 344 345 346 347 347 346 346 346 347 347 347 348 347 347 348 348 346 346 345 345 345 346 346 346 347 348 347
335 334 334 333 332 331 330 328 325 323 322 322 323 322 322 322 322 326 332 338 340 340 341 341 341 342 343 343 344 343 342 342 343 343 343 343 342 342 342 342 342 343 345 345 345 345 344 344 344 343 343 342 341 342 343 344 345 344 344 344 345 345 345 345 346 346 346 347 347 347 347 347 347 348 347 347 346 346 345 346 346 347 347 347 347
335 334 333 331 330 330 328 324 320 319 320 321 321 320 322 324 325 327 330 336 340 341 341 342 342 343 342 343 342 341 341 342 342 342 341 341 342 342 341 342 342 342 343 343 344 345 344 342 342 340 340 341 340 341 342 342 343 343 343 343 343 343 343 344 345 345 346 346 346 347 347 347 347 347 347 347 347 348 348 347 346 347 348 348 347
333 332 331 329 329 327 324 320 320 321 322 323 324 325 326 325 325 325 327 333 338 340 341 342 342 342 342 342 342 341 341 341 341 340 340 340 340 340 341 341 341 341 341 342 343 344 342 340 339 337 337 338 339 339 340 341 341 341 342 342 342 342 342 343 342 342 343 343 343 345 346 346 346 346 346 347 348 348 348 348 347 347 348 347 347
331 330 329 327 326 324 320 320 321 322 322 324 326 327 325 324 324 323 325 329 335 338 340 342 343 342 341 341 342 341 340 340 340 341 340 340 340 340 339 339 339 339 340 341 342 343 339 335 336 335 333 331 332 334 336 339 339 339 340 340 341 341 340 341 341 341 340 338 337 341 344 345 345 346 346 347 348 348 348 348 347 348 348 348 347
330 328 326 324 323 322 322 322 322 321 322 325 326 326 324 323 324 323 322 326 333 336 339 342 342 341 341 341 341 340 339 338 338 339 340 340 340 339 338 337 338 339 339 340 340 338 333 330 330 331 330 328 328 329 331 336 337 336 337 338 339 340 340 339 340 340 339 334 330 335 340 343 345 345 347 347 347 348 348 348 349 348 348 348 347
329 327 323 321 321 323 324 323 321 321 322 325 327 325 324 323 323 322 321 324 330 334 337 341 342 342 342 341 341 340 337 335 334 337 339 339 339 338 337 336 337 338 339 338 336 332 331 331 329 327 328 328 327 327 329 334 338 336 335 335 335 337 339 339 339 340 339 332 323 326 335 340 344 344 346 347 346 347 347 348 348 348 348 349 348
327 324 319 320 322 323 323 321 320 321 323 325 327 326 324 323 322 321 320 322 329 334 336 340 341 339 338 338 337 335 331 328 331 336 338 339 338 337 335 336 337 338 338 338 335 333 332 331 329 329 329 327 326 327 326 330 336 335 334 333 332 333 337 339 339 339 339 335 324 320 328 336 342 344 344 346 347 347 347 347 348 348 348 348 349
323 321 320 322 322 322 322 321 320 320 322 325 327 325 324 323 321 320 320 322 329 334 336 338 338 333 330 330 329 327 326 328 332 337 339 339 337 336 336 337 337 337 338 337 336 332 330 329 329 329 328 326 326 327 326 327 331 333 332 332 331 331 334 336 338 338 338 338 330 320 323 333 341 343 343 345 346 347 347 347 348 349 349 348 349
321 322 322 321 321 322 322 322 321 320 321 325 327 325 324 324 321 321 322 324 328 332 334 335 334 329 325 325 326 326 324 327 333 337 339 339 337 336 336 337 337 336 336 336 333 331 330 330 329 328 327 327 327 328 327 326 328 329 329 330 330 330 332 333 337 338 338 338 335 326 323 331 340 343 343 345 346 346 347 347 347 348 349 349 349
321 322 321 321 322 322 322 321 320 319 321 324 326 325 325 323 321 321 323 325 327 329 331 332 330 327 326 328 331 331 328 325 328 333 335 336 336 337 337 337 337 335 335 333 332 331 331 331 329 328 328 329 329 328 328 327 326 325 325 328 329 329 330 331 334 337 337 337 336 331 325 329 339 343 342 344 345 346 346 346 347 347 348 350 349
322 322 321 322 322 321 320 319 318 319 321 324 325 325 324 323 321 322 323 325 326 326 329 330 329 328 331 330 328 332 333 326 324 328 332 335 335 337 338 337 336 335 333 332 331 331 331 331 329 328 329 330 330 329 327 327 326 323 323 326 328 327 329 330 332 335 336 336 336 334 327 326 338 343 341 342 343 345 346 346 347 346 347 349 349
321 321 320 320 319 319 318 319 318 319 320 322 322 322 323 323 322 322 322 324 325 325 326 327 328 328 330 329 327 332 333 325 323 327 331 336 337 337 338 337 336 335 332 331 330 329 327 327 327 328 329 329 329 329 328 327 325 322 322 325 327 327 328 330 331 334 335 334 334 336 331 326 336 343 341 341 342 345 346 345 346 347 346 349 349
320 320 320 319 319 318 318 319 319 318 319 320 320 320 321 321 321 321 322 324 324 324 323 324 326 326 325 327 328 330 328 325 328 330 328 333 336 336 337 337 336 334 332 331 328 324 322 322 324 326 326 326 328 327 326 326 324 320 322 326 326 327 328 329 331 333 334 333 334 337 334 329 336 343 340 340 341 345 348 346 347 347 346 349 350
321 320 319 320 320 319 319 319 319 318 318 319 318 318 319 320 321 321 321 322 323 323 322 322 324 323 323 323 323 324 323 324 330 330 329 331 332 334 336 335 336 335 333 332 326 322 321 323 324 325 325 325 324 321 321 326 323 319 322 326 326 327 328 329 331 332 333 333 333 336 335 332 336 341 341 340 340 345 349 348 347 348 347 349 351
321 321 320 321 321 320 319 318 319 319 319 318 317 317 317 318 319 319 319 320 321 321 321 322 322 321 322 322 321 322 322 322 324 326 329 330 328 331 333 333 334 334 329 325 322 321 321 321 321 322 322 321 319 318 320 324 322 319 323 326 325 326 328 329 331 333 332 332 333 334 335 334 335 339 340 340 339 342 347 349 349 350 349 351 350
321 321 321 321 321 321 319 317 318 319 319 318 317 316 316 316 317 318 317 316 317 318 319 320 320 320 320 320 320 320 320 321 322 321 324 327 327 326 328 331 332 329 323 319 319 320 319 319 318 318 318 318 318 319 320 322 322 319 321 324 324 325 326 327 329 331 331 331 331 333 334 334 335 338 340 340 338 338 344 347 349 351 351 351 350
321 321 321 321 321 321 319 318 317 319 319 318 317 316 314 315 316 316 316 315 314 315 316 317 318 318 318 318 318 318 319 320 320 320 320 322 324 323 323 328 328 324 320 318 318 318 318 318 318 317 318 318 319 321 320 321 323 321 319 320 322 323 324 325 326 328 329 330 330 331 334 334 334 337 339 340 338 336 339 344 346 348 349 349 349
321 321 320 321 321 321 320 319 318 319 319 318 317 316 314 314 314 315 315 314 313 313 314 315 315 315 316 317 317 317 319 319 319 319 318 318 322 322 321 324 325 323 320 318 318 317 318 317 317 317 317 318 319 320 319 320 323 322 318 317 318 318 320 322 324 325 327 329 330 330 332 334 334 336 337 339 338 335 337 341 343 345 347 347 348
322 321 320 320 321 321 321 320 318 319 319 318 317 317 316 316 315 314 314 314 313 314 315 316 316 315 316 318 319 318 319 319 318 318 317 318 321 322 321 322 323 322 320 319 318 317 317 317 317 318 318 319 320 319 318 318 319 320 317 316 317 316 316 318 321 324 325 327 330 330 331 333 334 336 337 338 339 337 337 339 340 342 344 345 346
323 322 321 320 320 321 321 320 318 318 319 318 317 317 317 317 317 315 314 314 314 314 315 317 317 317 317 318 320 319 318 319 319 319 319 320 321 321 321 321 321 320 318 318 317 316 317 317 317 318 318 320 320 318 318 317 317 317 316 316 315 315 314 315 318 322 324 326 330 330 331 333 334 336 336 336 337 338 337 336 337 339 342 345 346
323 322 321 320 320 321 321 320 319 318 319 318 317 318 318 318 317 315 315 315 315 315 316 316 317 317 317 318 318 318 318 318 319 319 319 320 321 321 320 319 318 317 316 316 316 316 317 317 316 317 318 318 318 318 317 316 315 315 314 314 313 313 312 313 315 319 323 326 329 331 332 332 333 334 335 336 337 337 338 336 335 335 338 343 346
323 322 321 321 320 320 320 320 319 319 319 318 318 318 318 318 317 316 316 314 314 316 317 317 317 317 317 317 318 317 316 317 318 319 319 319 319 319 320 321 320 318 316 316 316 316 317 316 316 316 316 316 316 315 315 313 313 313 311 311 309 307 308 311 314 316 320 324 326 330 332 331 331 333 334 335 336 337 337 337 336 334 333 337 342
321 320 319 320 319 319 320 319 319 319 319 319 319 319 318 317 317 317 316 315 314 315 316 317 317 318 318 318 318 317 317 317 317 317 318 318 319 318 319 321 323 323 321 319 317 316 317 316 315 315 315 315 314 312 312 311 311 310 309 307 304 303 307 312 315 317 321 323 324 327 328 328 329 332 334 335 336 336 337 337 336 335 333 333 336
319 317 317 317 316 317 319 319 319 319 319 319 319 319 319 318 316 315 315 315 314 314 315 316 317 317 318 318 318 318 318 317 317 317 317 318 318 319 318 317 319 325 326 324 320 316 316 316 314 314 314 313 312 311 310 310 310 311 310 309 306 306 310 314 315 317 320 322 323 324 324 324 326 329 332 333 335 335 336 337 336 335 332 331 331
317 317 318 317 317 317 319 319 318 318 319 319 319 319 319 319 318 316 315 314 314 313 313 314 316 317 317 318 318 317 317 317 317 317 317 318 318 318 317 316 316 319 322 324 321 317 315 316 314 313 314 312 312 311 310 310 312 312 313 312 311 310 313 315 315 317 320 321 322 323 323 324 325 327 329 330 332 334 335 335 336 334 332 330 329
317 318 318 318 318 319 319 319 318 318 319 319 319 319 319 319 319 319 318 317 316 314 313 312 313 316 317 317 317 317 317 317 317 318 317 317 318 317 316 316 316 316 316 319 321 318 315 316 314 314 314 312 312 311 310 311 312 313 313 313 313 312 313 314 315 318 320 321 322 322 323 324 325 326 328 328 330 333 334 335 335 333 332 331 331
317 318 318 317 318 319 319 319 318 318 318 319 318 319 319 319 319 319 319 319 317 316 315 313 312 313 316 317 318 318 317 318 317 317 317 317 317 317 316 316 316 316 314 315 318 318 315 316 315 314 314 312 312 313 312 312 312 312 313 314 314 315 315 316 317 318 320 321 321 322 323 324 324 325 326 328 329 330 332 334 335 333 332 332 332
317 316 317 316 317 318 319 319 318 318 318 319 319 319 320 320 320 320 319 319 318 317 317 315 312 311 313 316 317 318 318 318 318 317 318 318 317 317 317 316 315 316 315 314 315 316 315 315 315 314 314 313 313 313 313 314 314 313 313 314 314 315 317 318 318 319 320 320 321 322 322 323 324 324 325 326 328 330 331 333 334 333 333 332 332
316 316 316 317 318 318 318 319 319 319 319 319 320 320 320 320 320 320 319 319 319 318 317 316 314 311 311 313 316 318 318 318 318 318 316 314 314 315 316 317 316 315 314 314 314 314 314 314 313 313 313 313 313 314 314 314 315 315 314 313 313 314 316 318 319 320 320 320 320 320 321 322 323 324 324 325 327 329 331 331 333 333 333 332 331
318 317 317 317 318 318 318 318 319 319 320 320 320 320 319 319 319 320 319 319 319 318 317 317 316 314 312 311 313 316 318 318 318 316 313 310 310 311 313 314 314 314 313 313 313 313 313 313 313 313 313 313 314 314 314 314 315 316 316 314 313 313 314 316 318 320 320 320 319 319 319 321 322 324 325 326 327 329 330 330 331 331 331 331 331
319 319 318 318 318 318 317 318 318 319 320 320 321 321 319 319 319 319 319 319 318 319 318 317 316 316 315 311 311 313 315 318 317 314 313 313 312 311 312 312 312 312 313 312 313 313 313 313 314 314 314 314 314 315 315 315 315 316 317 316 314 313 312 313 314 317 319 320 320 319 319 319 320 322 324 326 328 328 328 329 329 330 330 330 330
320 320 320 319 318 318 318 318 319 320 320 321 321 321 321 320 319 318 318 318 318 318 318 317 317 316 316 313 311 310 312 315 316 314 314 315 315 314 314 314 314 314 314 314 315 316 316 317 316 316 316 315 315 316 316 316 315 315 316 316 315 314 313 312 311 312 314 317 318 319 319 319 319 319 320 322 325 327 328 328 328 329 328 328 328
320 320 320 320 319 319 319 319 319 320 320 321 321 322 322 321 320 319 318 317 318 318 317 317 317 316 317 316 312 310 311 313 314 314 314 315 317 317 317 317 317 317 317 317 318 319 319 319 319 318 318 317 317 316 316 316 316 315 315 315 316 316 315 313 311 311 311 312 314 316 317 318 318 318 318 319 320 323 326 327 327 328 328 327 327
320 320 320 320 319 319 319 319 319 320 321 321 322 322 322 322 321 320 319 318 318 318 318 318 317 316 317 317 314 313 313 314 315 315 315 316 318 319 319 320 319 319 319 319 319 319 320 320 320 320 319 318 318 317 317 317 317 316 315 315 316 316 317 316 314 313 313 312 311 311 313 314 315 316 317 317 318 319 322 325 326 327 328 328 327
319 319 319 320 319 318 318 318 319 320 321 321 322 323 322 322 321 320 320 320 320 321 320 319 318 317 317 317 316 314 315 317 317 318 318 318 319 319 319 320 320 320 319 319 319 319 320 320 320 320 320 320 319 317 317 317 317 317 316 316 316 316 317 317 316 315 314 314 313 311 311 312 313 313 314 315 316 317 318 320 323 324 325 325 326
320 319 319 319 319 318 317 318 319 320 320 321 322 323 323 322 320 320 320 321 322 322 322 321 319 318 318 318 317 316 315 316 317 318 319 319 321 321 320 319 320 321 320 319 319 318 319 320 320 320 320 319 318 318 318 318 318 317 317 316 316 316 317 317 317 316 315 314 314 312 312 312 311 311 312 313 314 314 315 316 319 320 320 320 322
320 319 319 319 319 318 319 320 321 321 321 321 322 323 322 321 320 318 319 321 323 323 323 322 320 319 319 318 318 317 316 316 316 318 320 322 323 324 323 320 320 320 320 320 319 318 319 319 320 320 320 319 318 318 318 318 318 317 317 317 316 316 317 318 317 317 316 315 315 313 312 312 311 309 309 309 310 311 311 312 314 317 318 318 318
320 319 319 319 318 319 321 322 321 322 322 321 322 323 322 321 320 319 317 319 322 323 324 323 321 320 319 319 318 318 318 317 317 320 322 324 324 324 324 323 321 321 321 321 320 320 319 319 319 320 320 319 317 317 317 317 317 317 317 317 317 317 317 318 319 318 316 316 315 314 313 313 312 310 308 308 307 307 307 308 310 314 317 318 317
320 320 319 319 319 320 322 322 322 322 322 322 323 323 323 322 322 321 318 318 319 321 323 324 323 322 321 320 319 318 318 319 318 319 320 321 322 323 323 323 323 322 322 322 320 319 318 319 321 321 320 318 317 316 316 316 317 317 317 317 317 317 317 318 319 319 318 316 315 315 314 313 313 311 309 309 309 308 308 309 310 313 317 318 317
320 320 320 321 321 321 322 322 321 322 321 323 324 323 322 323 322 322 321 318 318 319 321 323 324 324 323 322 321 320 319 319 318 319 318 318 318 319 320 321 320 320 320 319 318 318 319 320 320 319 317 317 316 316 316 317 316 317 317 317 317 317 317 318 319 319 318 317 316 315 314 314 313 312 310 311 312 311 312 312 313 315 317 317 317
321 322 323 323 322 322 322 322 322 323 323 324 325 324 323 323 323 323 322 320 319 319 320 323 324 325 324 323 322 321 320 320 320 320 319 319 318 318 318 318 318 318 318 318 317 318 319 318 317 316 315 316 316 317 317 317 317 317 317 317 318 318 318 318 319 319 318 317 316 315 315 315 314 313 312 312 312 313 313 314 315 316 315 315 315
322 323 323 324 324 323 323 323 323 324 324 324 324 324 324 324 323 324 324 322 321 321 321 323 324 325 325 325 324 323 322 323 323 322 322 321 320 319 319 319 319 320 320 319 318 318 318 317 316 317 318 318 318 319 319 318 318 318 318 317 318 318 318 319 319 318 317 316 315 315 316 315 314 314 314 313 312 312 313 314 314 314 314 314 314
322 322 323 324 323 323 323 323 323 323 324 324 324 324 324 324 323 324 324 324 324 323 322 323 323 323 325 325 325 325 324 324 323 323 323 323 323 322 321 321 321 322 322 321 321 320 320 320 320 320 320 320 320 320 320 320 319 319 318 318 318 319 319 320 320 319 318 316 315 315 315 315 315 315 315 315 313 313 313 313 314 314 314 314 314
321 321 321 323 323 323 324 324 324 323 324 324 324 324 324 324 324 324 324 324 324 325 324 324 324 323 323 323 324 325 324 324 324 323 323 324 324 324 323 323 323 322 321 320 319 320 320 321 321 321 321 321 321 321 321 321 320 320 318 319 320 319 320 321 321 320 319 316 316 316 315 316 316 315 315 315 315 313 313 313 313 313 314 314 314
321 321 322 322 323 324 324 324 324 324 323 323 324 324 324 324 325 324 324 324 324 325 325 325 325 324 324 323 323 323 323 323 323 323 323 324 324 324 323 322 322 321 319 318 318 319 321 321 322 323 322 322 323 323 322 322 322 321 320 320 321 321 321 322 322 321 320 318 316 316 316 316 317 316 315 315 315 314 313 313 313 312 313 314 314
321 321 322 322 322 323 323 323 324 324 324 324 324 324 324 325 325 325 324 325 325 325 325 325 325 325 325 325 325 324 324 324 323 323 323 323 322 322 321 321 320 320 320 321 321 322 323 323 324 324 324 324 324 323 323 324 323 322 321 321 321 321 321 322 322 321 321 319 316 317 317 317 317 317 316 316 317 316 314 313 314 313 312 313 314
Wind_Speed
5 5 6 6 5 5 5 4 3 3 3 4 4 3 3 4 6 7 6 6 5 2 3 3 2 1 3 4 4 4 4 3 3 2 1 1 1 3 4 3 2 3 3 3 2 3 3 2 1 1 2 3 3 3 4 5 5 6 7 7 9 10 11 12 13 13 14 17 18 18 18 18 18 18 17 17 18 17 18 18 19 20 19 18 17
6 6 6 6 6 5 4 4 2 2 2 3 3 3 3 5 6 5 5 4 1 3 5 4 3 3 4 3 3 3 2 2 2 1 2 4 4 5 5 4 4 5 5 5 4 4 5 4 3 3 1 1 1 0 2 3 4 4 6 7 8 10 11 12 13 13 13 15 16 16 18 20 19 19 18 19 20 20 20 19 20 20 20 19 18
7 6 7 6 5 4 3 2 2 2 3 4 5 5 5 6 7 5 4 2 4 5 5 4 3 3 3 3 3 3 3 4 5 5 6 6 6 6 6 6 7 8 7 6 6 5 6 7 6 6 4 3 4 3 2 2 3 3 4 5 6 8 9 11 12 12 12 14 15 16 17 18 17 18 19 20 20 21 22 22 21 21 21 21 19
6 6 6 6 4 3 2 2 3 4 5 7 7 7 6 7 8 5 2 3 6 5 4 3 3 3 3 4 4 5 5 6 8 8 8 8 8 9 8 8 8 8 7 7 5 5 8 10 9 9 7 6 7 7 7 7 6 5 5 5 6 7 8 10 10 11 11 12 14 15 16 16 15 16 19 20 21 22 23 24 24 22 21 22 21
6 5 5 4 3 1 2 4 5 6 8 9 9 9 8 8 7 3 1 5 6 5 5 4 5 5 5 6 7 9 9 9 10 11 10 10 11 12 11 10 8 7 7 6 5 6 10 12 12 11 10 10 11 11 10 10 9 9 9 9 9 9 9 9 9 9 9 10 12 13 14 15 15 16 18 20 22 23 23 23 24 24 23 23 23
5 5 4 3 1 1 4 6 7 8 8 9 9 9 8 7 5 3 4 6 7 6 6 6 7 8 9 10 12 13 12 12 13 13 13 12 12 12 12 11 9 9 9 9 9 9 11 15 16 14 14 14 14 14 14 14 13 12 13 13 13 13 12 11 9 8 8 8 10 11 12 13 14 16 17 20 22 23 23 23 23 24 24 24 23
5 4 2 1 1 3 6 8 7 6 6 6 6 4 3 3 5 5 6 7 8 7 7 8 10 11 12 14 15 15 14 13 13 14 14 13 13 12 12 11 10 10 11 11 11 11 13 18 18 15 15 15 15 16 16 16 16 17 17 17 17 16 15 15 14 12 10 9 8 9 10 11 13 15 17 20 21 21 23 23 23 23 25 25 24
3 2 0 2 4 6 7 7 6 6 6 5 3 2 1 2 4 6 6 8 8 8 8 9 12 13 13 14 15 15 14 13 12 13 13 13 13 13 12 12 11 11 11 12 12 13 15 18 17 14 14 14 15 16 17 17 17 18 17 17 16 16 16 17 17 17 15 13 11 9 9 10 11 13 16 18 20 21 22 23 24 23 24 26 26
3 1 2 3 5 6 5 5 6 7 6 5 4 3 4 4 4 5 6 7 8 8 8 11 12 13 13 13 13 13 13 12 11 11 12 12 13 13 13 13 12 12 12 12 12 12 13 15 15 14 14 14 14 15 16 17 18 18 17 16 16 15 15 15 16 16 14 13 13 12 11 11 11 10 13 16 18 19 21 22 24 23 24 27 27
2 2 3 3 4 4 4 6 7 7 6 5 4 5 7 5 4 4 4 6 8 7 8 11 12 12 11 10 10 11 11 11 10 10 11 12 13 14 14 13 13 12 12 12 12 12 13 14 14 14 14 15 15 15 15 16 17 18 18 18 17 15 15 15 14 14 13 13 13 13 12 13 12 11 11 13 16 17 19 21 23 24 25 27 28
2 1 2 2 3 4 5 6 7 7 5 4 4 6 6 4 4 4 2 4 6 7 9 12 12 11 9 8 8 9 10 9 9 10 11 12 13 13 13 12 12 12 12 12 13 13 13 13 13 14 15 16 16 16 16 15 17 18 19 19 18 16 16 16 15 14 15 15 15 14 14 15 14 14 14 13 15 16 18 20 22 24 26 27 28
2 1 2 5 5 5 4 5 6 7 5 3 4 6 4 4 4 4 3 2 5 8 11 14 14 12 11 11 10 9 10 9 9 10 10 11 11 10 10 11 11 11 12 12 12 12 12 13 14 15 16 16 17 17 17 17 17 18 19 19 19 18 16 16 16 15 16 17 17 16 16 16 16 16 17 15 15 16 18 20 21 25 27 28 29
2 4 7 7 6 5 4 4 4 6 7 5 5 6 4 4 4 3 2 2 5 9 13 16 16 14 13 14 14 12 11 10 9 9 10 9 9 8 9 10 11 11 11 11 11 12 12 13 14 15 15 16 17 18 18 18 19 18 19 19 19 19 17 16 16 16 16 17 18 18 18 18 17 18 19 17 15 16 19 21 21 24 27 29 30
5 7 7 6 6 6 5 5 5 5 5 4 4 6 4 4 4 3 3 4 5 9 14 14 13 14 14 12 12 12 12 12 11 9 8 7 6 8 9 10 11 12 11 11 11 12 12 12 13 14 14 15 16 17 17 18 19 19 19 20 20 20 19 17 16 16 16 17 19 19 19 19 19 20 21 19 17 16 18 21 23 24 27 30 32
9 8 6 7 7 7 6 6 6 5 4 4 5 6 5 3 5 5 4 6 6 7 11 10 12 16 14 7 3 4 7 9 10 8 6 5 5 7 8 9 11 11 11 12 11 11 11 11 12 13 13 13 14 15 16 18 19 20 21 20 20 20 20 18 17 16 16 17 19 19 20 20 20 22 23 22 21 20 19 21 24 26 27 30 32
10 7 7 8 7 6 6 5 6 6 5 6 7 7 6 4 5 5 4 7 8 7 6 10 15 15 8 3 1 1 2 4 8 9 6 6 5 6 7 8 10 11 11 12 11 11 10 9 9 10 10 10 11 12 14 16 18 20 20 19 20 20 20 19 17 17 17 18 19 20 21 21 21 23 24 25 26 25 24 25 26 28 30 32 34
9 8 8 8 7 6 5 6 7 7 7 8 10 9 8 7 6 6 6 8 10 12 9 9 12 9 5 4 2 1 1 1 4 7 7 8 7 6 7 8 9 10 11 11 11 10 9 7 7 7 8 9 9 10 12 14 16 19 19 18 19 20 19 19 17 17 17 19 20 21 22 22 22 23 25 28 30 31 29 31 31 29 32 33 34
10 9 9 8 8 8 7 7 8 8 8 9 10 10 9 8 7 7 7 8 11 15 15 12 10 7 7 5 2 4 6 4 1 2 6 9 8 7 7 7 8 8 9 10 11 10 8 7 7 7 8 9 9 10 11 12 14 17 17 17 18 18 18 18 17 16 17 18 20 22 23 23 22 24 26 30 33 33 31 29 25 26 33 34 33
11 10 9 8 9 9 8 8 8 9 9 9 10 11 11 9 8 7 8 8 10 14 15 14 13 13 11 9 7 10 11 7 3 2 3 5 7 8 7 6 7 7 8 9 9 9 8 7 8 8 8 10 10 10 11 10 12 15 15 16 17 17 18 18 17 16 16 18 20 21 23 23 23 24 26 30 33 32 27 16 5 19 29 31 32
12 11 9 8 8 9 9 9 9 10 11 10 11 11 11 11 9 9 9 10 10 13 13 13 14 14 13 13 12 11 9 7 7 5 3 2 3 5 7 8 8 8 10 10 10 10 11 11 10 10 9 9 9 9 9 10 13 15 15 15 16 17 17 18 19 18 16 17 20 21 23 23 22 24 26 29 32 32 25 13 11 18 22 26 28
12 11 9 8 7 8 9 9 10 11 11 11 11 11 11 11 11 10 11 12 12 13 13 13 13 12 11 11 12 12 10 8 8 7 5 3 1 0 3 7 9 11 12 12 12 11 11 10 9 9 8 8 8 7 8 11 14 15 14 15 16 16 17 17 19 19 18 18 20 21 22 22 22 23 25 27 30 30 25 15 12 18 20 21 23
12 10 9 8 8 8 9 9 11 11 11 11 11 12 12 12 11 10 11 13 14 13 14 13 12 11 10 9 10 9 9 8 7 7 6 4 3 1 1 4 6 8 11 12 11 10 10 9 8 7 7 7 6 6 6 9 12 13 13 13 15 15 16 17 17 19 19 19 20 21 21 21 21 22 23 24 27 28 25 19 11 15 18 18 19
12 10 9 8 8 10 9 9 10 10 10 10 10 12 13 13 12 11 11 12 14 14 14 13 11 10 10 9 9 9 8 8 7 7 5 4 4 2 3 5 5 6 8 9 10 11 11 10 9 8 6 5 5 5 6 7 9 12 12 12 13 14 15 17 17 17 17 18 19 19 20 20 20 21 22 22 24 26 26 23 17 11 13 15 17
12 10 9 8 8 11 10 9 10 9 9 10 10 10 10 11 11 11 11 12 12 12 13 13 12 12 11 11 12 11 10 10 8 8 7 6 7 4 3 5 4 4 5 5 7 11 13 12 11 9 7 5 5 6 6 7 9 12 13 13 14 15 16 17 16 16 16 16 17 17 18 18 19 20 21 20 21 25 25 23 22 15 7 10 13
13 11 9 8 9 12 12 10 9 8 9 10 10 10 8 8 9 10 11 11 10 10 11 12 11 12 11 11 12 11 9 8 7 8 8 7 9 6 3 4 3 3 4 4 4 8 12 13 11 10 8 7 6 7 8 9 10 12 14 16 16 18 18 17 16 15 15 15 15 15 16 17 18 19 19 19 18 21 22 21 20 18 12 6 8
14 12 9 9 10 12 12 11 10 9 10 11 10 9 7 8 9 9 10 10 10 10 10 10 9 10 10 9 9 8 7 6 6 6 6 7 8 7 5 5 5 5 5 6 6 7 9 12 11 9 8 8 8 9 10 11 13 14 17 19 20 19 17 15 14 13 13 13 13 14 15 16 17 18 18 18 17 17 20 20 18 17 15 13 8
14 11 9 10 11 12 12 12 12 12 11 10 9 8 7 8 9 10 11 10 10 11 11 10 9 8 8 7 6 6 5 6 6 5 5 5 6 6 4 3 3 4 4 4 8 9 9 9 10 10 9 10 11 11 12 14 16 19 21 22 21 19 15 12 12 12 11 10 10 12 15 16 16 17 17 17 16 15 17 18 19 17 15 14 12
13 11 11 11 11 13 14 14 13 13 12 10 9 8 8 10 10 10 11 10 10 10 10 10 9 8 8 6 5 5 5 5 5 5 5 5 5 4 3 4 3 1 2 2 4 7 8 8 9 10 11 11 12 13 14 17 19 21 22 22 20 16 12 11 10 10 10 9 9 11 13 15 15 16 16 15 14 13 14 16 18 18 17 14 12
14 15 14 13 13 14 15 14 13 13 11 10 9 8 8 10 11 12 12 11 10 10 9 8 8 8 7 7 6 5 5 4 4 4 3 3 4 5 5 4 4 2 0 1 1 3 5 6 7 9 10 11 13 14 16 18 18 20 21 21 19 14 12 10 9 9 9 8 9 11 12 13 14 15 15 15 13 12 12 14 15 17 18 18 15
17 19 17 16 15 14 14 13 12 13 11 9 8 7 7 8 10 11 12 12 11 11 9 7 7 6 6 7 6 6 6 5 5 4 3 4 5 6 6 5 4 4 2 1 0 2 3 4 5 8 9 11 13 14 16 17 18 20 20 20 18 15 11 10 9 9 8 9 10 11 11 13 13 13 14 13 13 12 11 11 13 15 17 18 18
20 21 18 17 16 14 13 12 12 13 12 9 8 6 5 5 6 7 9 10 10 11 10 8 6 5 5 6 6 6 6 5 5 5 5 5 5 5 5 5 5 5 3 2 1 1 3 2 3 6 8 10 12 14 16 17 17 19 19 18 17 15 12 10 9 9 9 9 10 11 11 11 12 12 12 12 11 11 10 9 10 13 15 16 17
21 21 19 17 16 14 13 12 13 13 12 10 8 6 4 3 2 3 4 6 7 8 9 9 9 6 4 5 6 6 6 5 5 5 5 5 4 3 3 4 4 4 3 2 2 1 3 2 2 4 7 9 11 14 16 17 18 19 19 17 16 15 13 11 10 9 10 10 10 11 11 11 11 11 12 11 10 10 9 8 8 10 12 14 15
20 20 19 17 15 15 13 13 13 13 11 9 6 4 4 4 3 1 1 1 4 6 7 8 9 8 5 4 4 5 5 5 5 5 4 4 2 2 3 3 3 3 3 3 3 2 3 3 3 5 7 8 11 13 15 17 19 20 19 16 16 16 15 13 11 10 10 10 10 10 10 10 10 11 12 11 10 10 9 7 7 8 9 11 12
20 19 18 17 16 15 14 12 12 11 8 6 3 2 3 5 5 4 3 2 1 3 5 6 8 8 7 4 3 4 4 5 5 4 3 3 1 2 3 3 3 3 3 3 3 3 5 5 5 7 8 8 10 12 13 15 18 20 20 17 16 17 16 15 14 13 11 11 11 11 11 11 11 11 12 11 10 10 9 7 6 6 8 9 10
21 19 18 18 17 15 13 11 10 8 6 4 3 3 3 3 4 5 5 4 2 2 3 4 5 7 6 4 2 3 3 4 4 4 4 5 5 3 4 4 3 4 5 6 6 6 8 8 8 9 9 9 10 11 12 14 15 18 20 18 16 16 16 16 16 15 14 13 14 15 15 15 14 13 12 11 10 9 9 8 7 7 7 8 9
21 19 18 17 16 15 12 10 8 6 5 5 5 5 5 3 3 5 7 5 4 2 2 2 3 4 5 5 3 2 2 3 4 4 5 7 8 8 8 7 7 7 8 8 8 8 8 8 8 9 9 10 10 11 12 13 15 17 19 19 17 15 15 15 15 15 14 13 13 14 15 16 16 15 13 12 11 9 9 9 9 8 8 8 9
20 18 17 16 15 14 13 11 9 7 5 6 6 6 5 4 4 6 8 6 4 3 2 2 1 2 4 5 4 2 1 4 5 5 5 5 6 7 8 8 8 8 7 6 6 7 7 8 9 9 10 10 11 11 12 13 15 17 19 19 18 16 15 14 14 14 13 12 12 12 13 13 15 16 15 14 12 10 9 9 9 9 9 9 9
19 17 16 15 14 13 12 11 9 7 6 7 7 5 4 4 4 4 6 6 4 3 2 2 2 1 2 4 3 2 2 3 5 5 4 3 3 4 5 5 5 5 4 4 4 5 6 8 9 9 10 10 11 11 12 12 14 16 18 18 18 18 16 14 14 15 15 14 12 12 12 12 12 14 15 15 14 12 9 8 8 8 8 8 9
18 16 15 14 13 12 12 10 8 6 6 7 6 4 3 3 3 3 5 6 4 4 4 3 4 4 1 1 2 1 3 4 4 5 4 2 2 2 2 2 2 2 2 3 4 5 7 8 9 10 10 10 10 11 11 12 13 14 16 17 18 18 18 17 14 14 16 16 14 13 12 11 10 11 12 13 13 13 11 9 7 7 7 8 8
17 15 14 13 12 12 11 10 7 6 7 6 5 4 2 1 2 2 4 6 5 5 5 5 5 5 4 2 2 2 3 4 4 4 3 1 1 2 2 2 3 3 4 5 5 6 8 9 10 10 11 11 10 10 11 11 12 13 14 15 16 17 18 18 15 12 14 17 17 15 13 11 10 10 10 10 11 12 11 10 8 7 7 8 8
16 13 13 12 12 12 11 10 8 8 7 6 3 2 0 1 1 1 3 5 6 5 4 5 5 5 6 6 4 4 5 4 4 3 2 2 4 6 5 4 5 6 6 6 7 8 8 10 11 11 12 13 11 10 11 11 11 12 13 14 15 15 16 17 16 11 11 16 18 17 16 13 12 12 10 10 10 10 10 9 8 7 7 8 8
16 14 13 12 11 11 11 10 9 8 8 6 3 2 1 1 2 1 1 3 5 5 4 4 4 4 5 7 7 6 7 7 7 6 7 7 9 9 7 6 7 7 8 8 9 9 10 12 12 12 13 14 13 11 11 11 11 12 13 14 16 16 15 16 15 12 11 14 17 17 16 14 14 14 12 11 11 11 10 10 8 7 6 7 8
16 14 13 12 12 11 10 9 8 8 9 7 5 4 3 1 1 1 1 2 4 5 4 4 4 4 6 7 8 8 8 9 10 10 10 11 10 10 8 8 8 9 10 10 11 11 12 13 14 14 14 15 15 13 12 12 11 12 13 14 16 17 15 12 11 12 12 13 15 16 16 14 14 15 14 12 12 11 11 10 9 7 6 6 7
16 14 12 12 12 12 11 8 7 8 9 8 6 6 4 1 1 1 2 3 4 5 6 5 5 5 6 8 9 9 9 9 10 10 10 10 10 10 9 9 9 9 10 12 13 13 13 14 16 16 16 16 16 15 14 13 13 13 15 16 16 16 15 13 13 14 13 13 13 14 15 14 14 15 14 12 12 12 11 10 9 7 5 5 7
14 12 11 11 12 12 11 9 8 9 9 8 7 6 5 2 0 1 2 2 3 4 6 7 6 6 7 8 9 10 9 9 10 11 11 11 11 11 11 12 11 11 11 12 13 14 14 15 17 18 17 16 16 16 15 14 15 15 16 17 17 17 17 17 17 18 16 14 12 11 13 14 13 14 14 11 11 12 11 10 8 5 5 7 8
13 11 10 10 10 10 10 9 8 8 8 9 9 7 5 3 1 1 2 2 2 3 5 6 7 7 7 8 9 9 8 9 10 12 13 13 13 14 14 14 14 13 13 13 14 13 14 15 17 18 17 16 17 17 16 15 16 17 18 19 19 19 19 20 20 19 16 12 9 7 9 12 12 13 14 12 12 13 11 8 7 6 7 10 10
13 12 11 10 9 9 8 8 8 8 8 10 9 7 6 4 3 2 3 3 3 3 3 5 7 8 8 8 8 8 8 8 10 11 12 14 15 16 17 17 18 17 17 17 16 16 16 16 18 19 19 18 19 19 18 17 18 18 19 19 20 20 22 22 21 19 15 10 7 5 6 11 12 11 13 14 13 13 10 7 6 7 9 11 11
13 12 11 10 9 8 8 8 8 8 8 9 8 7 7 6 5 5 5 4 4 4 4 5 6 8 8 8 8 9 9 9 9 10 11 13 15 17 19 20 20 20 20 19 18 18 19 19 20 21 20 20 20 21 21 20 20 20 19 20 21 21 21 20 20 20 16 11 9 7 8 11 11 10 12 14 14 13 11 8 8 10 11 11 11
14 11 11 10 9 9 9 8 7 6 6 6 6 7 7 7 6 7 7 6 6 6 6 6 6 6 7 8 9 10 11 11 11 12 11 12 14 15 17 19 20 21 22 21 20 19 19 19 20 21 21 22 21 22 22 21 21 21 19 21 22 21 17 14 15 18 17 13 12 10 10 10 11 12 13 15 16 15 12 10 11 13 13 12 11
14 12 11 11 10 10 9 8 6 5 4 4 5 5 6 6 7 8 8 8 8 9 9 8 8 7 6 7 8 10 12 12 13 13 13 13 14 15 17 18 20 22 24 23 22 21 20 20 21 22 22 23 23 23 23 23 22 20 19 21 22 19 16 13 13 16 20 20 16 11 9 9 12 14 15 15 15 15 13 11 12 14 14 13 11
14 12 12 11 10 9 9 8 7 6 5 6 6 6 6 7 8 8 9 10 10 11 11 11 10 9 8 7 7 9 10 11 12 12 12 13 14 16 17 18 20 23 23 22 22 23 23 24 24 25 25 25 25 25 24 23 21 20 19 20 20 19 19 19 16 13 12 13 11 8 7 10 13 14 14 10 9 11 13 14 14 15 15 15 14
Wind_Direction
212 213 219 222 223 223 229 241 255 272 287 291 292 301 309 312 310 311 313 311 311 276 187 152 139 57 20 3 356 351 331 306 300 288 232 142 71 45 42 35 15 30 44 40 44 66 85 118 180 222 226 239 252 256 251 250 250 257 261 263 268 268 265 268 269 267 264 260 257 256 257 257 258 259 256 252 250 247 243 239 235 233 234 232 228
225 227 229 227 219 219 231 245 269 293 310 309 311 329 330 322 319 323 329 323 308 141 127 108 76 37 24 18 21 15 348 353 25 52 82 76 62 53 49 45 50 65 70 67 65 74 88 96 95 96 107 122 124 222 259 264 266 270 276 276 279 276 272 276 276 271 267 264 261 258 256 254 253 255 257 257 254 251 246 242 238 235 235 232 231
236 233 228 224 216 215 229 250 294 322 327 322 321 326 324 318 321 331 341 358 134 121 96 77 48 37 34 43 52 48 33 45 67 75 69 64 57 53 60 66 73 79 80 78 80 88 96 90 85 87 76 69 86 88 73 27 333 318 312 304 297 291 284 283 283 279 272 268 266 263 260 260 258 255 256 258 258 255 250 244 240 237 236 233 230
228 221 212 209 207 213 241 289 318 328 324 317 315 316 312 311 316 325 353 125 135 109 89 79 63 62 66 79 80 77 74 68 70 73 69 68 67 67 73 78 80 84 80 76 79 87 94 90 85 84 79 70 68 68 70 58 39 33 21 8 355 333 313 300 293 290 289 283 276 270 267 265 262 256 255 257 256 255 252 247 243 238 235 234 231
211 203 196 199 200 229 313 328 329 328 319 310 305 305 303 300 296 288 124 142 137 110 99 90 84 88 91 97 97 93 88 83 80 80 80 78 78 77 78 82 84 82 74 64 63 78 90 92 88 82 72 62 58 56 57 56 51 50 47 38 26 15 360 335 315 304 301 298 289 283 277 270 264 258 257 257 254 253 252 250 245 239 235 235 232
202 198 189 193 220 334 343 342 337 331 319 308 300 297 293 279 250 198 141 143 139 117 106 97 98 100 99 103 103 99 94 90 87 84 84 83 83 81 78 82 84 79 73 67 66 72 83 87 85 77 67 60 60 58 53 51 48 46 44 41 37 30 22 10 358 342 324 313 305 298 292 282 271 263 260 258 255 252 251 250 246 240 236 235 231
192 196 187 161 360 353 349 344 343 343 333 324 312 298 282 235 193 162 136 137 138 125 114 107 109 107 105 107 105 100 95 92 91 88 86 87 88 84 79 80 80 78 77 75 73 69 71 77 80 80 74 65 63 61 56 52 48 46 43 40 37 30 25 23 21 18 7 353 334 316 309 299 282 268 259 256 254 251 248 247 246 241 236 234 231
169 171 132 26 5 352 348 347 354 1 358 358 2 14 60 140 149 144 133 129 135 132 124 119 117 115 112 111 109 103 98 95 92 89 86 86 86 82 78 76 75 74 76 77 77 74 71 73 77 80 78 69 62 61 57 54 50 48 46 44 41 33 28 23 21 24 22 12 5 358 343 326 302 281 267 259 254 252 248 245 245 241 236 234 231
149 92 24 14 4 358 2 12 11 10 12 19 34 55 70 89 108 122 126 125 133 138 134 129 125 122 118 115 111 106 102 98 93 90 86 83 79 76 72 71 72 73 74 78 78 76 75 77 77 73 70 66 60 58 55 51 48 45 43 41 40 35 32 28 25 26 21 13 13 14 5 349 331 306 281 267 260 256 252 246 244 240 237 235 230
143 60 26 19 25 39 40 28 18 18 22 22 45 72 68 67 70 85 109 122 132 142 144 139 134 130 124 116 112 107 102 99 94 92 90 86 79 73 69 67 71 73 73 75 76 77 77 75 72 66 64 61 56 54 52 47 41 39 36 33 31 28 28 27 25 24 16 12 13 13 8 360 350 331 304 283 271 264 258 250 246 244 241 237 231
149 59 34 74 87 84 55 36 29 27 23 15 60 85 68 53 38 33 67 120 134 145 149 146 141 137 128 114 106 103 101 99 93 93 94 90 84 76 69 67 69 72 72 74 78 80 75 69 67 65 62 57 52 48 45 41 35 33 30 27 25 22 20 19 18 15 10 7 9 10 9 6 358 343 324 302 283 272 264 255 248 245 242 238 231
159 117 115 120 115 99 71 58 39 29 32 37 80 97 76 49 28 9 15 111 139 140 145 148 138 123 112 106 101 95 94 95 93 95 97 93 88 80 74 74 73 72 72 73 77 74 70 71 69 64 57 52 49 44 41 40 35 30 26 23 21 18 15 13 12 10 5 3 4 5 4 4 0 349 336 318 293 275 265 257 249 245 241 235 230
146 127 119 117 116 108 91 81 46 27 34 44 85 104 85 45 33 12 6 131 143 135 139 144 133 113 99 95 93 90 90 94 97 100 106 106 98 87 81 79 77 77 76 75 75 71 70 71 65 58 53 49 45 40 37 37 33 27 22 18 15 14 12 10 8 6 3 360 359 0 1 359 357 351 343 331 311 287 270 261 252 246 241 234 229
135 124 107 101 109 111 104 87 55 35 36 47 96 113 96 52 48 56 80 117 131 139 142 141 134 125 114 97 84 82 84 90 100 107 111 114 105 93 85 82 82 83 84 83 77 73 70 65 58 54 50 43 38 36 32 29 26 21 17 14 10 10 9 8 5 3 2 360 357 358 358 356 355 352 347 339 324 304 284 271 260 250 241 233 229
133 119 94 95 104 101 95 78 55 53 63 83 115 123 111 74 60 59 81 109 112 138 154 155 145 137 126 110 82 72 68 68 80 93 103 105 103 102 90 83 86 86 88 87 81 74 66 58 55 53 47 39 35 34 30 24 20 15 13 11 7 6 5 4 2 1 1 360 358 357 356 356 354 352 350 344 332 317 297 282 269 254 241 232 226
131 117 102 103 99 86 77 66 63 72 84 95 108 117 117 99 76 62 71 102 100 106 143 161 152 142 125 101 103 84 60 44 59 69 86 105 104 106 98 91 91 90 87 84 77 67 57 51 50 49 45 37 34 34 29 22 15 11 12 9 3 2 2 1 360 359 360 360 358 357 357 356 354 353 351 346 338 325 305 289 277 257 238 228 222
128 118 113 107 92 81 75 75 80 84 87 90 95 101 108 105 88 73 71 92 101 98 105 137 150 152 147 133 117 67 169 173 73 57 69 95 102 105 105 102 97 92 88 82 71 60 50 42 46 48 37 28 31 32 25 19 14 12 12 8 1 0 1 0 359 358 360 1 359 360 359 358 357 355 352 349 342 331 312 294 281 253 228 220 216
129 124 120 108 93 84 85 91 86 82 86 89 92 95 100 102 94 85 82 94 107 101 95 102 112 112 121 131 145 158 160 159 122 54 63 79 92 104 107 110 111 102 92 82 66 52 39 32 39 43 32 33 42 36 22 14 14 15 13 6 1 2 3 2 360 359 3 4 2 2 1 1 0 357 355 354 347 339 326 304 277 233 211 209 207
133 132 126 112 97 85 84 96 91 82 87 92 92 92 95 101 102 97 95 100 108 102 95 97 97 88 90 96 103 134 153 155 146 139 89 78 87 100 104 111 118 105 87 80 66 52 49 51 55 57 54 54 50 35 23 15 14 17 15 9 6 6 6 6 5 4 5 6 4 3 1 2 3 0 359 358 355 353 348 336 253 192 193 196 198
130 130 125 116 105 89 84 98 102 86 81 87 89 90 94 98 103 105 103 99 97 97 94 96 96 90 88 90 90 104 127 142 149 144 126 112 87 92 100 102 101 93 86 84 80 75 75 77 74 70 66 57 41 31 30 26 20 16 16 12 7 8 7 6 8 10 8 5 3 3 0 2 5 4 3 3 2 2 4 25 118 156 174 183 190
126 125 124 123 117 100 91 100 110 93 79 83 86 88 95 94 95 98 98 97 95 94 93 92 94 95 92 91 91 94 94 101 124 126 113 125 143 95 108 101 93 91 94 92 87 83 79 77 76 72 65 49 38 38 34 30 24 16 14 12 7 8 7 3 4 7 8 5 2 2 0 1 7 7 7 9 9 9 12 33 106 142 159 173 185
126 126 124 128 129 118 101 99 111 100 83 87 87 86 91 90 90 95 95 95 95 93 92 91 92 93 93 95 95 97 94 86 92 105 105 102 110 119 102 101 95 95 97 92 86 80 71 67 69 70 62 47 44 45 35 33 29 16 7 7 4 3 4 1 360 0 4 4 0 1 2 2 7 10 10 12 13 16 19 26 68 126 148 165 178
133 131 123 126 138 135 115 101 113 108 87 92 98 90 87 85 88 97 101 99 95 93 91 90 90 91 91 92 92 91 94 89 81 89 100 105 113 104 92 103 104 102 100 89 80 70 60 55 55 55 50 48 55 52 38 36 31 14 1 0 359 357 358 357 356 356 359 2 360 359 3 4 7 11 13 16 17 20 23 28 42 88 144 161 173
145 143 131 129 142 144 131 113 117 113 90 96 109 102 90 84 86 96 104 104 99 95 92 88 84 85 89 93 93 90 89 91 81 74 87 125 133 113 99 114 104 93 105 99 81 64 52 48 50 52 55 63 69 55 36 25 20 8 356 356 357 354 354 353 353 355 355 360 2 1 4 7 9 11 13 18 24 25 26 32 39 50 106 160 176
159 154 142 141 147 148 141 128 124 117 99 104 115 113 97 86 88 94 101 105 104 100 97 93 83 79 88 97 98 94 89 88 83 72 79 116 128 114 96 111 102 87 90 81 81 70 54 49 54 61 65 70 63 41 26 14 7 360 349 347 348 347 347 347 349 355 358 1 4 6 9 11 13 15 14 16 27 34 31 32 37 42 56 103 163
164 157 147 152 154 151 145 137 131 122 111 112 117 114 98 88 92 95 98 103 106 106 102 98 87 78 85 99 102 98 89 79 76 78 82 101 116 115 103 90 76 74 70 54 56 61 49 49 58 64 63 59 48 30 19 5 355 349 342 338 338 338 339 342 347 355 3 9 10 14 17 16 15 16 16 15 23 37 40 37 37 38 43 59 87
159 154 149 156 157 153 148 142 134 124 121 125 123 114 97 89 93 94 94 99 104 105 105 101 92 81 84 99 104 96 83 71 69 76 84 94 101 107 115 108 67 49 43 42 47 43 40 53 61 58 56 50 38 24 11 360 351 344 338 335 334 334 337 342 350 359 7 16 21 23 22 17 16 16 16 15 18 32 45 44 44 44 40 48 66
151 145 146 153 154 152 148 145 139 131 130 133 124 111 96 87 89 90 88 93 100 101 101 100 94 88 85 91 101 94 72 60 67 75 84 100 104 100 119 151 153 88 10 13 34 33 40 60 65 57 54 43 28 18 6 358 354 348 344 344 342 342 350 355 357 5 12 20 27 30 24 15 14 17 18 17 17 29 46 46 46 49 48 49 58
145 139 140 140 141 146 149 149 148 144 138 132 126 115 100 89 87 89 87 88 92 95 97 97 93 89 83 81 84 82 70 62 77 81 82 102 122 122 116 124 142 152 113 360 351 13 31 55 66 55 45 33 22 17 9 4 4 2 358 358 356 358 6 7 6 11 20 26 25 26 20 9 9 17 20 21 20 24 40 46 45 47 49 51 52
144 140 140 138 136 142 149 153 156 158 149 135 132 124 107 95 89 89 88 85 83 82 83 87 92 92 86 81 77 79 85 91 93 93 96 108 124 127 117 105 97 103 131 160 337 15 27 51 66 50 34 28 24 19 17 17 16 11 4 0 3 9 14 16 16 17 25 31 24 20 12 2 7 16 18 22 25 25 34 42 46 48 48 49 50
149 147 146 142 140 143 144 146 152 158 159 151 145 137 114 103 93 86 84 82 78 73 66 64 77 91 94 91 88 91 98 103 101 103 108 111 119 120 115 114 101 88 106 138 128 60 37 42 67 46 28 26 26 22 23 25 21 15 11 7 9 16 19 20 22 23 30 31 24 19 10 2 9 16 17 21 26 31 36 41 47 50 50 49 48
154 156 155 148 146 146 141 140 143 149 156 155 151 150 140 131 108 84 77 74 74 71 60 51 54 66 89 103 104 107 113 116 113 114 116 113 115 115 115 124 112 88 75 88 102 81 45 46 57 27 17 20 26 24 23 25 24 21 21 20 21 26 31 33 33 34 36 32 24 17 10 8 12 14 16 20 25 32 40 49 54 51 49 48 46
153 158 161 158 152 149 143 143 145 145 150 150 148 161 176 187 186 159 107 68 76 75 64 50 48 54 68 96 114 121 129 135 128 123 121 114 117 136 139 137 118 91 64 72 83 61 37 43 33 12 10 19 24 21 17 19 21 23 27 29 30 33 40 44 41 36 33 29 22 17 16 18 17 14 16 21 25 30 40 56 63 56 47 45 44
150 152 158 161 156 151 148 149 150 146 144 139 127 143 176 188 190 186 197 205 130 91 75 59 51 51 53 66 105 129 139 145 139 127 106 84 74 173 166 153 118 86 65 65 65 39 29 33 32 27 26 24 19 13 9 11 17 21 26 30 29 31 38 44 45 42 40 41 39 39 42 40 33 23 20 26 30 30 38 53 60 57 49 43 44
151 150 154 158 156 156 157 155 152 146 136 128 116 115 132 163 182 185 189 197 190 130 99 79 60 52 47 45 69 126 158 163 142 115 90 76 73 94 124 125 104 85 70 60 52 39 33 32 32 29 24 17 10 6 5 9 14 19 24 28 27 27 31 37 44 47 48 51 52 53 52 49 45 36 30 37 41 33 35 44 48 52 53 48 44
154 155 155 157 160 164 165 162 159 151 142 148 144 125 109 97 129 163 170 178 188 180 140 108 78 57 46 35 33 84 174 186 156 123 104 91 84 85 90 90 83 74 64 55 48 39 30 21 18 17 12 8 8 6 3 6 13 19 24 27 26 23 23 24 31 38 42 44 45 47 48 48 47 43 41 46 49 42 38 42 46 52 56 54 47
159 161 159 160 166 171 171 168 164 157 151 157 155 138 118 104 119 153 161 162 170 182 184 171 146 70 47 35 24 35 175 192 173 144 122 102 89 85 81 77 73 66 57 49 37 26 15 3 358 360 1 2 5 9 7 5 10 16 20 25 29 25 18 13 13 19 24 27 28 29 33 40 42 40 40 44 48 46 41 41 43 47 50 49 43
165 169 168 167 171 175 176 176 170 160 147 146 150 145 130 118 119 149 170 171 177 198 220 218 217 219 47 35 20 41 140 182 181 165 153 126 88 78 74 70 68 59 46 35 18 3 355 349 343 343 347 350 354 3 9 6 7 12 12 16 23 23 17 11 9 11 13 14 15 16 16 20 27 30 30 33 39 41 38 34 32 30 31 33 29
169 176 179 177 177 178 180 181 178 167 150 145 149 146 135 120 107 137 180 187 196 212 213 207 215 226 240 16 4 123 140 148 158 154 152 142 78 50 43 26 9 360 347 337 335 336 335 334 331 329 331 336 340 346 356 3 7 10 7 3 6 10 10 7 3 3 5 5 6 9 6 1 5 14 17 19 25 30 33 32 30 23 13 9 11
167 174 181 182 181 182 184 185 186 181 170 167 163 148 132 94 78 122 178 188 189 189 188 190 197 215 231 253 281 228 177 156 149 144 139 129 18 355 347 333 315 296 289 294 306 318 321 322 324 324 323 323 329 334 340 351 357 1 1 353 348 351 356 358 360 359 358 359 359 1 360 348 341 350 357 1 7 13 19 23 24 23 13 358 354
165 172 180 181 181 183 185 187 193 195 191 189 179 155 160 326 6 88 169 185 187 181 178 182 186 202 224 237 251 249 226 205 191 195 224 291 316 320 321 322 314 301 292 290 296 304 308 310 316 322 320 319 324 326 327 337 343 344 349 345 339 341 343 347 356 1 359 356 354 358 5 357 343 340 342 345 350 352 358 5 6 5 7 359 347
167 172 180 183 184 182 181 185 196 203 206 210 211 201 215 290 331 344 180 189 194 193 187 180 187 206 225 235 243 251 250 242 239 251 263 276 297 308 308 308 308 301 294 290 292 298 300 301 306 312 311 313 322 322 318 326 332 332 339 340 337 338 337 339 348 357 1 356 348 353 6 4 349 346 347 345 343 340 341 349 351 343 342 347 344
172 179 186 189 187 185 186 194 205 211 215 221 219 199 187 196 335 326 289 236 209 208 207 201 205 218 231 241 245 250 257 256 256 261 263 266 280 296 300 300 304 301 295 292 292 294 294 295 300 303 299 303 316 322 317 320 326 327 331 333 332 333 332 329 328 334 348 352 343 343 356 3 354 350 353 352 346 342 340 343 342 330 316 324 337
179 186 191 195 195 198 203 207 209 212 218 221 205 185 178 188 334 323 290 259 237 230 228 226 228 229 236 247 250 252 261 268 268 267 266 265 269 278 283 285 288 288 284 285 289 291 292 292 294 296 295 298 309 318 318 317 319 320 322 325 327 328 324 313 301 308 327 340 336 333 344 357 357 352 357 3 356 351 350 345 340 329 316 323 335
180 183 189 197 202 205 206 203 202 207 215 213 198 185 187 199 249 337 306 277 261 250 237 233 238 242 246 252 254 256 264 273 276 275 276 276 274 274 277 277 277 276 273 275 280 283 284 286 286 289 295 297 301 311 318 313 309 311 312 315 320 322 318 310 302 304 314 322 320 318 331 349 355 352 357 6 0 356 356 349 344 342 339 341 340
169 172 175 179 185 188 188 188 193 199 203 201 196 195 200 205 229 328 329 320 309 284 252 241 245 256 262 262 260 264 270 277 282 283 283 285 286 285 285 284 284 285 282 279 279 277 275 277 280 287 295 298 298 306 314 310 304 305 304 306 312 314 312 309 304 302 305 307 301 296 315 337 349 348 352 359 355 355 358 355 353 355 347 344 341
164 163 163 164 169 175 180 186 194 197 196 198 202 207 206 211 242 281 314 330 337 328 291 264 260 265 270 270 269 275 283 286 289 289 287 287 288 287 287 288 290 292 291 289 288 285 283 282 284 289 294 297 298 302 306 306 303 303 301 301 303 304 306 306 302 299 300 297 290 276 296 323 335 336 342 349 347 347 355 357 352 347 341 339 337
168 167 169 173 178 185 191 194 200 205 205 206 213 217 213 220 245 267 291 308 319 330 324 298 279 272 271 272 275 281 286 288 292 292 291 290 288 287 288 290 294 296 297 297 296 294 293 293 294 295 296 298 298 298 301 301 300 301 300 297 297 299 300 300 296 297 297 291 290 288 287 307 320 319 326 338 338 336 344 351 348 343 338 337 337
176 179 181 180 187 197 200 202 204 205 208 214 221 221 218 224 244 263 280 292 301 310 317 316 304 290 280 276 277 281 282 285 291 296 297 296 294 293 294 296 300 301 301 305 306 305 304 303 302 301 301 301 301 300 300 299 298 299 294 288 292 296 293 288 287 292 292 284 286 288 281 296 316 316 315 328 334 333 337 343 344 343 340 337 337
182 185 188 190 197 204 209 215 218 214 213 217 223 227 227 234 249 263 275 283 290 298 305 311 312 308 302 294 289 288 289 290 294 298 299 298 297 298 299 302 303 302 305 311 315 314 312 309 306 305 304 304 305 304 303 302 301 297 286 283 290 291 281 272 273 282 288 286 283 275 266 288 314 317 316 323 327 328 331 332 335 339 339 337 337
185 187 193 200 208 216 223 229 231 235 235 230 233 241 246 251 259 266 272 277 283 292 300 306 309 309 307 305 303 301 301 301 301 301 299 297 296 296 299 301 299 300 306 313 313 311 311 309 308 307 306 306 307 306 305 304 303 297 287 283 286 279 269 267 268 273 286 288 281 265 261 284 303 311 314 319 320 322 323 321 325 331 332 331 331